Location: Fuglau
(48.6333°N, 15.5500°E)
Time: 08:10:24
(UTC+00:00)

Meteor 1-25 Rocket - Pass Details

Date: 27 February 2020
Orbit: 836 x 892 km, 81.2° (Epoch: 10 April)

Event Time Altitude Azimuth Distance (km) Brightness Sun altitude
Rises 17:22:31 0° 174° (S) 3,438 7.4 -8.2°
Reaches altitude 10° 17:25:00 10° 170° (S) 2,496 6.6 -8.6°
Maximum altitude 17:30:29 53° 95° (E) 1,045 4.3 -9.5°
Drops below altitude 10° 17:35:55 10° 20° (NNE) 2,479 6.4 -10.4°
Sets 17:38:23 0° 16° (NNE) 3,413 7.2 -10.8°
